FENGYUN 1C DEB, 30050

Orbit data source: Space-Track

FENGYUN 1C DEB, 30050 is space debris in SSO originally from a launch on Mon, 10 May 1999 UTC launched from the Taiyaun Space Center, China (TSC). Fengyun 1C debris stems from the Chinese weather satellite Fengyun-1C, which was intentionally destroyed by a Chinese anti-satellite missile in 2007. This event dramatically increased the amount of space debris, with thousands of trackable fragments posing hazards to satellites and human spaceflight. The Fengyun 1C debris cloud has become a focal point in discussions about space sustainability and the need for international regulations to prevent the creation of new debris.

Loading next visibility...
Identifier
30050, 1999-025PB
Orbit
SSO
Country
Flag of CNCN / PRC
Related business
Manufacturer
Unknown
Mission
Spacecraft
Bus & Motor
Unknown
Mass
Unknown
Launch date (UTC)
1999-05-10 (27 years ago)
Launch vehicle
Unknown
Launch site
Taiyaun Space Center, China (TSC)
Object type
Payload
Rocket body
Debris
Shape & HBR
Unknown shape, 0.1 m
Radar Cross Section
Medium (>0.1 m² and <1 m²)

Expand to show TLE details & history
Last TLE update: 12 hours ago

TLE from 12 hours ago
0 FENGYUN 1C DEB
1 30050U 99025PB  26264.93456198  .00000496  00000-0  40946-3 0  9993
2 30050  96.8187 153.5583 0168728 302.1356 116.9630 13.85637360991233
Epoch: 2026-09-21T22:25Z
TLE epoch observation values (Epoch: 2026-09-21T22:25:46.155Z)
Latitude
60.18046°
Longitude
164.33021°
Altitude
1,011.876 km
Speed
7.322 km/s
True Right ascension
09h 26m 19s
True Declination
60° 02' 13"
Sunlit
Object was in daylight at epoch
Visualization orbit readout
Latitude
Unknown
Longitude
Unknown
Altitude
Unknown
Speed
Unknown
Apparent Right ascension
Unknown
Apparent Declination
Unknown
Sunlit
N/A
Visualization observer readout
Local Sidereal Time
03:42:54
Azimuth
Unknown
Elevation
Unknown
Doppler factor
Unknown
Orbital elements
Apogee altitude
1,064.579 km
Perigee altitude
817.588 km
Semi-major axis
7,319.22 km
Eccentricity
0.01687
Inclination
96.8187°
RAAN
153.5583°
Arg. of periapsis
302.1356°
True anomaly
118.66973°
Mean anomaly
116.963°
Eccentric anomaly
117.81802°
Mean motion
3.46614 °/min
Orbital period
103.86 mins
BSTAR
0.00040946
Loading maneuver chart data...
Computing Atmospheric mass density...

Documentation

Showing up to 5 results
|